Regional Weather Roundup
Issued by NWS Newport/Morehead, NC

Current Version | Previous Version | Graphics & Text | Print | Product List | Glossary Off
Versions: 1 2 3 4 5 6 7 8 9 10 11 12 13 14 15 16 17 18 19 20 21 22 23 24 25 26 27 28 29 30 31 32 33 34 35 36 37 38 39 40 41 42 43 44 45 46 47 48 49 50

000
ASUS42 KMHX 251014
RWRMHX
WEATHER ROUNDUP FOR EASTERN NORTH CAROLINA
NATIONAL WEATHER SERVICE NEWPORT/MOREHEAD CITY NC
600 AM EDT MON SEP 25 2017

NOTE: "FAIR" INDICATES FEW OR NO CLOUDS BELOW 12,000 FEET
WITH NO SIGNIFICANT WEATHER AND/OR OBSTRUCTIONS TO VISIBILITY

NCZ015>017-031-032-045>047-102-103-251100-
NORTH COAST

CITY           SKY/WX    TMP DP  RH WIND       PRES   REMARKS
EDENTON        CLOUDY    69  67  93 CALM      29.96F
ELIZABETH CITY PTCLDY    72  69  90 NE12      29.96S
KITTY HAWK     CLOUDY    70  66  89 NE9G16    29.94R
MANTEO         CLOUDY    71  68  89 NE16G23   29.94F

$$

NCZ045>047-081-094-103-104-251100-
CENTRAL COAST

CITY           SKY/WX    TMP DP  RH WIND       PRES   REMARKS
FRISCO         CLOUDY    73  72  96 NE8G22    29.90R

$$

NCZ095-097-098-100-101-251100-
SOUTHERN COAST

CITY           SKY/WX    TMP DP  RH WIND       PRES   REMARKS
BEAUFORT       CLOUDY    73  71  93 N15       29.89S
CEDAR ISLAND   NOT AVBL
JACKSONVILLE   CLOUDY    71  69  93 N9        29.90F
PINEY ISLAND     N/A    N/A N/A N/A NE15G23   29.90R
WILMINGTON     CLOUDY    70  67  90 N10       29.90S


$$

NCZ011>013-027>030-043-044-078>080-089-090>093-098-251100-
COASTAL PLAIN

CITY           SKY/WX    TMP DP  RH WIND       PRES   REMARKS
AHOSKIE        CLEAR     62  62 100 N3        29.99R
CLINTON        CLEAR     67  65  93 NE6       29.94S
ELIZABETHTOWN  NOT AVBL
GOLDSBORO      CLOUDY    67  67 100 N9        29.93F
GREENVILLE     MOCLDY    63  63 100 N6        29.97F
HAVELOCK       NOT AVBL
KENANSVILLE    MOCLDY    66  64  94 NE3       29.94R
KINSTON        PTCLDY    66  64  95 N9        29.94F
NEW BERN       CLOUDY    71  69  93 NE9       29.93S
RICHLANDS      CLOUDY    69  67  93 N9        29.93S
ROCKY MOUNT    CLOUDY    63  63 100 NE6       29.99R
WASHINGTON     CLOUDY    66  65  96 N5        29.94F
WHITEVILLE     CLEAR     67  63  89 CALM      29.92R

$$

AMZ130-135-150-152-154-156-158-170-250-252-270-ANZ085-086-088-633-658-670-251100-
MARINE OBSERVATIONS

STATION/POSITION TIME  TEMP    WIND        PRES    WAVE   SWELL
                       AIR SEA DIR/SP/G            HT/PER HT/PER
                 (UTC) (F)     (DEG/KT/KT) (MB)    (FT/S) (FT/S)
CHESAPEAKE LIGHT NOT AVBL
64 E VA BEACH    0950   71 70   40/ 14/ 16 1014.7   11/14  11/14
DUCK             0948   72 76   50/ 19/ 21 1013.8
2 E DUCK         0930      75                N/A     6/14   3/14
OREGON INLET     0936   72 76   30/ 16/ 22 1013.1
13E OREGON INLT  0948      75                N/A     8/15   8/15
HATTERAS CG      0948   73 78   50/ 13/ 20 1012.3
DIAMOND BUOY     0950   75 77   30/ 21/ 25 1011.0   12/14  10/14
CAPE LOOKOUT     1000   74      20/ 18/ 22 1011.6
BEAUFORT LAB     0948   73 76   20/ 10/ 19 1011.6
30 SE NEW RVR IN 0908   76      40/ 21/ 27 1010.9
30 SE NEW RVR IN NOT AVBL
27 SE WRIGHTSVLE 0908   76 80   60/ 19/ 27 1010.6
5 SE WRIGHTSVLE  0908   74 78   30/ 14/ 27 1011.7
225 S CAPE HAT   0950   80 80   10/ 35/ 43  996.9   23/13
41 SE CHARLESTON 1000   78      30/ 16/ 19 1010.9

$$




USA.gov is the U.S. government's official web portal to all federal, state and local government web resources and services.